Wind_Speed
8 8 9 9 8 8 8 8 9 10 10 11 11 11 11 11 11 11 11 11 11 11 11 11 10 10 10 10 9 9 8 8 7 7 7 6 6 5 4 4 3 3 3
5 6 7 7 7 6 6 7 7 8 8 9 9 9 9 9 9 9 9 8 8 8 9 9 9 9 9 8 8 8 7 7 7 6 6 6 6 5 4 3 2 1 2
3 4 5 4 4 5 5 6 6 7 7 7 7 7 7 7 7 7 6 6 6 6 6 7 7 7 8 8 7 7 6 6 6 5 5 5 5 4 3 2 1 0 1
1 2 2 2 3 3 4 5 6 6 6 6 6 6 6 5 5 5 4 4 4 4 4 4 5 5 6 6 6 6 5 5 5 5 4 3 3 3 2 2 1 1 2
1 1 2 2 3 4 5 6 7 7 7 6 6 5 5 5 4 4 3 3 2 2 3 3 3 3 3 4 4 4 4 4 4 3 3 2 2 1 1 0 1 1 2
3 3 3 4 6 6 7 7 8 8 8 8 7 7 6 5 5 4 4 3 3 3 3 4 3 3 3 3 3 3 3 3 2 2 2 2 1 0 0 1 2 2 3
4 4 5 6 7 8 9 9 9 10 10 9 9 8 8 7 7 6 6 5 5 5 5 6 6 5 5 5 4 4 4 3 3 2 2 2 1 1 1 2 2 2 3
5 5 6 7 8 9 10 10 10 11 11 11 10 10 10 10 9 9 8 8 8 8 8 8 8 8 8 8 7 7 6 6 6 5 5 5 4 4 3 3 3 3 3
6 6 7 9 9 10 11 11 11 12 12 12 12 12 12 12 12 12 12 11 11 11 11 11 11 11 11 11 10 10 10 9 9 9 8 8 8 7 6 5 5 5 5
8 9 10 11 12 13 13 13 14 14 14 14 14 14 15 15 15 15 15 15 15 15 15 14 14 14 14 14 14 13 13 13 12 12 12 11 11 11 10 9 8 7 7
11 13 13 15 16 17 18 18 18 18 18 18 18 18 18 18 19 19 19 19 19 19 19 19 18 18 18 18 17 17 17 16 16 16 15 15 14 14 13 12 12 11 11
15 16 17 19 20 21 22 22 22 22 22 23 23 23 23 23 23 23 23 23 23 23 23 23 22 22 22 22 21 21 20 20 19 19 19 18 18 18 17 16 16 15 15
19 20 22 23 24 24 25 25 26 26 26 26 26 26 27 27 28 28 28 28 28 27 27 27 26 26 25 25 25 25 24 23 23 22 22 22 21 21 21 20 19 19 18
23 24 25 26 26 27 27 28 28 29 29 30 30 29 30 31 31 32 32 33 33 32 32 32 31 31 30 29 29 29 28 28 27 26 25 24 24 24 23 23 23 22 21
26 27 28 28 28 28 29 30 30 30 31 32 32 32 32 33 34 34 35 35 35 36 36 36 36 35 35 34 33 33 32 32 31 30 28 27 27 26 25 26 25 25 24
30 30 30 30 29 30 30 30 30 31 31 31 32 32 33 33 34 35 35 36 38 39 40 40 39 39 38 37 37 36 35 35 35 33 32 31 30 29 28 27 27 26 26
32 33 32 31 31 31 31 31 31 30 30 30 31 31 32 33 33 34 34 34 36 38 39 41 42 42 41 40 39 39 39 38 39 38 36 34 33 32 31 29 29 28 27
34 34 34 32 32 32 32 32 32 31 31 30 30 30 31 32 32 32 33 33 35 36 37 39 40 41 42 42 41 41 41 40 40 41 39 38 36 35 33 32 31 30 29
35 35 34 33 33 33 33 33 32 30 29 28 28 28 29 30 30 31 31 32 33 35 37 38 39 41 41 42 41 41 40 40 40 40 40 40 38 37 35 34 33 32 31
36 36 35 34 33 33 33 32 31 29 28 27 27 27 28 29 29 30 30 31 33 34 36 37 38 40 41 41 42 42 41 40 39 38 39 40 40 39 38 36 35 33 32
36 35 35 34 34 34 33 31 29 28 27 27 27 27 27 27 28 29 29 30 32 34 34 36 37 39 39 40 40 40 40 40 40 38 38 38 38 38 39 38 37 35 33
36 36 36 36 35 34 33 31 29 28 27 27 26 25 25 26 27 28 28 29 31 32 33 34 36 37 37 38 39 38 36 37 37 38 36 36 36 37 38 37 36 34 33
37 37 36 36 35 34 33 31 29 28 27 27 26 26 25 26 26 27 28 29 30 32 32 34 36 37 37 37 38 38 37 36 36 35 35 34 35 36 35 35 34 33 33
36 36 36 35 35 34 34 32 31 30 29 28 28 27 27 26 27 27 28 29 30 31 32 34 35 37 37 37 37 37 37 36 35 34 34 33 33 33 33 33 32 33 32
34 35 35 35 36 36 35 34 32 31 30 29 28 28 28 27 27 28 28 29 30 31 32 33 35 36 37 38 37 37 37 36 34 34 33 33 33 32 32 33 32 31 32
34 35 35 36 37 36 36 35 33 32 32 31 30 30 30 29 29 29 29 29 30 31 32 33 34 35 36 37 38 38 37 36 35 34 33 32 33 33 33 32 32 32 32
Wind_Direction
71 68 66 61 56 50 44 43 48 55 61 65 68 71 73 72 71 71 72 74 76 77 76 74 73 71 69 68 67 66 65 64 63 64 66 65 65 66 70 79 85 91 106
69 66 63 58 50 42 32 27 31 39 47 53 57 61 64 66 67 66 67 70 74 76 76 74 73 72 70 69 69 67 66 66 64 63 63 63 62 60 57 56 71 98 120
72 64 59 52 40 29 14 6 9 16 24 31 38 43 48 53 57 56 56 60 65 70 72 70 69 68 67 67 66 67 67 65 63 62 62 62 61 57 52 47 47 138 171
76 57 45 29 8 358 346 338 342 349 359 7 13 19 25 33 37 40 42 44 47 49 52 56 58 58 58 60 61 61 63 64 62 61 61 62 62 57 51 52 58 191 202
268 299 321 322 316 315 316 316 319 325 332 338 343 346 351 359 5 8 11 10 6 3 0 4 16 28 34 38 44 48 51 54 55 55 54 57 59 60 61 60 233 205 208
279 283 294 300 299 298 299 301 304 310 315 318 319 320 320 323 327 330 330 325 318 314 315 316 320 328 335 345 355 5 13 18 24 31 33 33 39 22 252 249 236 226 212
283 285 290 294 295 295 296 296 299 302 305 306 307 307 305 304 303 304 304 302 299 296 295 295 297 299 302 304 307 314 319 322 318 314 314 320 323 304 277 262 255 248 229
284 286 289 292 293 293 294 295 297 299 301 302 301 300 299 297 295 293 292 291 290 288 286 285 285 286 289 289 290 292 294 295 295 292 288 287 287 285 282 274 261 255 242
292 294 295 295 295 294 295 295 296 297 298 298 297 296 294 292 291 290 288 287 286 283 280 278 280 281 281 281 282 284 284 284 284 285 282 279 279 278 276 274 268 262 252
303 301 299 298 298 296 297 298 297 297 297 296 294 293 292 290 289 287 286 285 284 282 279 277 277 277 277 276 276 277 279 279 279 279 278 275 275 275 273 271 268 264 262
302 301 299 297 296 295 294 294 293 293 293 292 291 290 289 289 287 286 284 282 282 281 279 277 275 275 275 274 273 274 275 275 275 275 276 274 274 274 272 270 269 267 262
301 299 297 296 295 294 294 293 292 292 291 290 289 289 288 287 286 285 283 282 279 278 277 276 275 274 274 273 274 274 275 274 274 273 273 273 273 274 273 272 269 267 265
300 299 297 295 294 293 293 292 291 291 289 288 287 287 286 285 284 283 281 280 278 276 275 274 274 273 272 272 273 273 273 272 272 272 272 272 272 273 272 273 272 269 266
300 299 297 296 294 293 293 292 291 290 289 287 287 286 285 283 282 281 280 278 276 274 273 273 272 272 271 272 272 271 271 271 271 270 270 269 269 270 270 271 272 270 267
299 299 298 296 295 294 293 292 290 290 289 286 286 287 287 285 283 281 279 279 276 273 271 270 270 270 270 271 271 270 269 269 269 269 269 268 267 269 270 269 269 270 267
297 298 298 298 296 295 295 293 292 291 291 289 289 288 287 286 284 281 280 279 277 274 270 268 267 268 268 269 269 268 268 268 267 266 266 267 268 268 269 268 268 269 269
295 297 297 297 297 296 295 295 296 294 292 291 291 291 289 287 285 282 282 282 280 279 274 270 268 266 266 267 267 266 267 267 267 265 265 265 267 267 267 268 268 268 270
292 294 295 296 297 296 296 296 296 295 294 293 292 291 290 289 287 285 284 283 283 282 279 274 272 271 270 269 267 267 268 267 268 267 266 265 266 266 267 267 268 267 267
290 291 293 295 296 296 296 295 295 296 296 294 294 292 291 290 289 288 287 285 283 283 282 279 275 272 272 272 270 270 270 270 270 269 268 266 263 264 265 266 266 266 265
286 288 291 293 295 296 296 296 295 295 295 294 294 294 293 292 291 290 290 289 287 286 284 282 279 275 274 273 272 271 271 271 270 270 269 267 263 262 262 263 264 265 264
285 287 290 291 294 295 295 296 296 295 294 295 296 296 295 294 293 293 294 293 290 289 287 284 281 279 277 277 276 275 272 270 269 269 267 266 264 261 261 261 261 263 262
284 286 288 291 293 295 294 294 295 296 296 296 297 298 297 296 295 295 295 294 292 290 289 286 284 282 280 279 278 277 275 272 271 268 265 264 262 261 261 260 259 261 259
283 286 288 291 293 294 294 295 295 296 297 298 297 298 298 298 299 298 296 295 293 291 289 287 285 283 282 280 278 276 274 274 272 268 266 264 263 261 259 258 257 257 257
283 286 288 290 291 292 294 295 296 297 297 297 296 296 297 299 300 301 300 298 297 294 291 289 287 284 282 280 278 276 273 272 271 269 266 265 263 260 259 258 256 255 254
283 284 285 288 289 290 292 294 295 295 296 296 295 295 296 297 299 301 301 300 299 296 293 291 288 285 282 279 277 275 274 272 270 268 266 265 263 260 258 257 256 254 252
282 282 284 286 288 290 291 293 293 293 294 294 294 294 295 296 298 299 299 299 300 299 296 292 290 288 284 279 276 274 273 272 271 268 266 263 262 260 258 257 255 254 254
Height
5930 5928 5928 5927 5926 5926 5925 5924 5923 5921 5919 5918 5916 5916 5915 5914 5913 5911 5910 5909 5908 5907 5906 5905 5904 5903 5902 5901 5900 5899 5898 5897 5896 5895 5895 5894 5893 5893 5892 5892 5892 5892 5892
5930 5929 5928 5928 5927 5926 5926 5925 5923 5922 5920 5919 5917 5916 5915 5914 5913 5912 5911 5910 5909 5908 5907 5906 5905 5904 5903 5902 5901 5900 5899 5898 5897 5896 5895 5895 5894 5893 5893 5893 5892 5892 5892
5930 5929 5928 5928 5927 5927 5926 5925 5923 5922 5921 5919 5918 5917 5916 5915 5914 5913 5912 5911 5910 5909 5908 5907 5906 5905 5904 5903 5902 5901 5900 5899 5898 5897 5896 5895 5894 5894 5894 5893 5893 5892 5892
5930 5929 5928 5928 5927 5926 5926 5925 5923 5922 5921 5919 5918 5917 5916 5915 5914 5913 5912 5911 5910 5909 5908 5907 5906 5905 5904 5903 5902 5901 5900 5900 5899 5897 5897 5896 5895 5895 5894 5894 5893 5893 5893
5929 5928 5928 5927 5927 5926 5925 5924 5923 5922 5921 5919 5918 5917 5916 5915 5914 5913 5912 5911 5910 5909 5908 5907 5906 5905 5904 5903 5902 5901 5901 5900 5899 5898 5897 5896 5895 5895 5894 5894 5893 5893 5893
5928 5927 5927 5926 5926 5925 5924 5923 5922 5921 5920 5919 5917 5916 5915 5914 5913 5912 5911 5910 5910 5909 5907 5906 5905 5904 5903 5903 5902 5901 5901 5900 5899 5898 5897 5896 5896 5895 5894 5894 5893 5893 5892
5927 5926 5926 5925 5925 5924 5923 5922 5921 5920 5919 5917 5916 5915 5914 5913 5912 5911 5910 5909 5908 5908 5907 5906 5905 5904 5903 5902 5901 5901 5900 5899 5898 5898 5897 5896 5896 5895 5894 5894 5893 5892 5892
5926 5925 5924 5924 5923 5922 5921 5920 5919 5918 5917 5916 5915 5913 5912 5912 5911 5910 5909 5908 5907 5906 5905 5904 5903 5902 5902 5901 5900 5899 5899 5898 5897 5897 5896 5895 5895 5894 5894 5893 5892 5892 5891
5924 5924 5923 5922 5921 5920 5919 5918 5917 5916 5915 5914 5913 5911 5910 5910 5909 5908 5907 5906 5905 5904 5903 5902 5902 5901 5900 5899 5898 5898 5897 5896 5896 5895 5894 5894 5893 5893 5892 5892 5891 5890 5890
5923 5922 5922 5921 5920 5919 5918 5916 5915 5914 5913 5911 5910 5909 5908 5907 5906 5905 5904 5903 5902 5901 5900 5899 5899 5898 5898 5897 5896 5895 5894 5894 5893 5893 5892 5892 5891 5891 5890 5890 5889 5889 5888
5922 5921 5920 5919 5917 5916 5915 5914 5912 5911 5910 5908 5907 5906 5905 5903 5902 5901 5900 5899 5899 5898 5897 5896 5895 5895 5894 5894 5893 5892 5891 5891 5890 5889 5889 5889 5888 5888 5887 5887 5887 5886 5886
5920 5918 5917 5916 5915 5913 5912 5910 5909 5907 5906 5905 5903 5902 5901 5899 5898 5897 5896 5895 5894 5893 5892 5892 5891 5890 5890 5889 5889 5888 5887 5887 5886 5886 5886 5885 5885 5884 5884 5884 5883 5883 5883
5917 5915 5914 5912 5911 5909 5908 5906 5904 5903 5902 5900 5899 5898 5896 5895 5893 5892 5891 5890 5889 5888 5887 5886 5886 5885 5885 5884 5884 5883 5883 5882 5881 5881 5881 5881 5880 5880 5880 5879 5879 5879 5879
5913 5912 5910 5908 5906 5905 5903 5901 5899 5898 5896 5895 5893 5892 5890 5889 5888 5886 5885 5884 5883 5882 5881 5880 5880 5879 5878 5878 5877 5877 5876 5876 5875 5875 5875 5875 5875 5875 5875 5874 5874 5874 5874
5909 5907 5905 5903 5901 5899 5898 5896 5894 5892 5890 5888 5887 5885 5884 5882 5881 5879 5878 5877 5875 5874 5873 5872 5872 5872 5871 5871 5871 5870 5870 5869 5869 5869 5869 5869 5869 5869 5869 5869 5869 5869 5869
5904 5902 5900 5898 5896 5894 5892 5890 5888 5886 5884 5882 5880 5878 5877 5875 5873 5872 5871 5869 5868 5866 5865 5864 5863 5863 5863 5863 5863 5862 5862 5861 5861 5861 5861 5862 5862 5862 5863 5863 5863 5863 5863
5898 5896 5894 5892 5890 5888 5886 5883 5881 5879 5877 5875 5873 5871 5869 5867 5866 5864 5863 5861 5859 5857 5856 5855 5854 5854 5854 5853 5853 5853 5853 5853 5853 5853 5853 5854 5854 5855 5855 5856 5856 5856 5856
5893 5891 5888 5886 5884 5881 5879 5877 5875 5873 5871 5869 5866 5864 5862 5860 5858 5857 5855 5854 5852 5849 5847 5846 5845 5845 5845 5844 5843 5843 5844 5844 5844 5844 5844 5845 5846 5847 5848 5848 5849 5849 5850
5887 5885 5882 5880 5877 5875 5873 5870 5868 5866 5864 5861 5859 5857 5855 5853 5851 5849 5848 5846 5843 5841 5839 5838 5837 5836 5835 5834 5833 5833 5833 5834 5835 5835 5835 5836 5837 5838 5839 5840 5841 5841 5842
5881 5878 5876 5873 5871 5869 5867 5864 5861 5859 5857 5855 5853 5850 5848 5846 5843 5841 5839 5838 5835 5833 5831 5829 5828 5827 5827 5826 5824 5824 5824 5824 5825 5825 5826 5826 5827 5829 5830 5831 5832 5833 5834
5874 5871 5869 5866 5864 5862 5860 5858 5855 5853 5851 5848 5846 5843 5841 5839 5836 5833 5831 5830 5827 5825 5823 5821 5820 5819 5818 5816 5815 5815 5815 5815 5815 5816 5816 5817 5818 5819 5820 5821 5823 5824 5825
5867 5864 5862 5860 5857 5855 5853 5851 5849 5846 5844 5841 5839 5836 5834 5832 5829 5827 5824 5822 5820 5817 5815 5813 5811 5810 5809 5807 5806 5805 5805 5807 5806 5806 5806 5807 5809 5810 5811 5812 5814 5815 5816
5860 5857 5855 5853 5851 5849 5846 5844 5842 5839 5837 5834 5832 5830 5827 5825 5822 5820 5817 5815 5812 5809 5807 5805 5803 5801 5800 5799 5797 5796 5796 5797 5797 5797 5797 5798 5799 5800 5802 5803 5805 5806 5808
5853 5850 5848 5846 5844 5841 5839 5837 5835 5832 5830 5827 5825 5823 5820 5818 5815 5813 5810 5807 5804 5801 5799 5797 5794 5792 5791 5790 5789 5787 5787 5788 5788 5788 5789 5790 5790 5791 5793 5794 5796 5798 5799
5845 5843 5841 5838 5836 5834 5832 5830 5827 5825 5823 5820 5818 5815 5813 5810 5808 5805 5802 5799 5796 5793 5790 5788 5786 5783 5781 5780 5779 5778 5778 5778 5779 5779 5781 5782 5782 5783 5784 5786 5787 5789 5791
5838 5836 5833 5831 5828 5826 5824 5822 5820 5818 5815 5813 5811 5808 5805 5803 5800 5798 5795 5792 5789 5785 5782 5779 5777 5774 5772 5771 5770 5769 5769 5770 5770 5770 5771 5773 5774 5775 5776 5777 5779 5781 5782